�������l�o���
Date,Time,MP-1(��Sv/h),MP-2(��Sv/h),MP-3(��Sv/h),MP-4(��Sv/h),MP-5(��Sv/h),MP-6(��Sv/h),MP-7(��Sv/h),MP-8(��Sv/h),����,����(m/s),���J
2018/11/16,00:00,0.776,1.180,0.821,1.465,1.062,0.453,0.801,0.757,�k��,3.4,��
2018/11/16,00:10,0.777,1.182,0.821,1.465,1.062,0.451,0.800,0.759,�k��,3.6,��
2018/11/16,00:20,0.775,1.182,0.822,1.467,1.062,0.454,0.799,0.758,�k��,3.6,��
2018/11/16,00:30,0.775,1.181,0.821,1.466,1.060,0.453,0.801,0.756,�k��,3.6,��
2018/11/16,00:40,0.776,1.181,0.822,1.466,1.063,0.453,0.801,0.756,�k��,3.9,��
2018/11/16,00:50,0.775,1.178,0.820,1.464,1.064,0.453,0.799,0.757,�k��,3.2,��
2018/11/16,01:00,0.774,1.180,0.821,1.463,1.064,0.454,0.799,0.757,�k��,3.0,��
2018/11/16,01:10,0.775,1.180,0.820,1.464,1.062,0.454,0.800,0.756,�k��,2.9,��
2018/11/16,01:20,0.775,1.182,0.823,1.463,1.063,0.453,0.798,0.758,�k��,2.5,��
2018/11/16,01:30,0.776,1.180,0.821,1.466,1.061,0.454,0.801,0.758,�k��,2.6,��
2018/11/16,01:40,0.775,1.179,0.822,1.465,1.062,0.452,0.800,0.757,�k��,2.3,��
2018/11/16,01:50,0.774,1.181,0.820,1.462,1.062,0.453,0.799,0.757,�k��,2.2,��
2018/11/16,02:00,0.776,1.179,0.820,1.463,1.062,0.452,0.801,0.757,�k��,1.7,��
2018/11/16,02:10,0.774,1.179,0.819,1.462,1.061,0.452,0.800,0.756,�k��,2.5,��
2018/11/16,02:20,0.777,1.178,0.821,1.465,1.061,0.454,0.799,0.757,�k��,2.6,��
2018/11/16,02:30,0.776,1.179,0.821,1.465,1.061,0.453,0.798,0.759,�k��,2.3,��
2018/11/16,02:40,0.776,1.179,0.822,1.464,1.064,0.454,0.800,0.757,�k��,1.7,��
2018/11/16,02:50,0.775,1.178,0.820,1.464,1.063,0.454,0.800,0.756,�k�k��,1.2,��
2018/11/16,03:00,0.775,1.180,0.819,1.466,1.062,0.454,0.800,0.758,�k�k��,2.0,��
2018/11/16,03:10,0.775,1.176,0.819,1.460,1.062,0.454,0.798,0.756,�k��,1.9,��
2018/11/16,03:20,0.775,1.180,0.820,1.463,1.061,0.453,0.799,0.757,�k��,2.2,��
2018/11/16,03:30,0.774,1.180,0.820,1.464,1.062,0.453,0.800,0.757,�k��,2.6,��
2018/11/16,03:40,0.777,1.178,0.819,1.463,1.064,0.454,0.799,0.756,�k��,3.3,��
2018/11/16,03:50,0.774,1.179,0.818,1.464,1.062,0.452,0.799,0.757,�k��,3.3,��
2018/11/16,04:00,0.775,1.178,0.818,1.464,1.060,0.453,0.800,0.757,�k��,3.2,��
2018/11/16,04:10,0.776,1.178,0.819,1.463,1.060,0.453,0.800,0.757,�k��,3.2,��
2018/11/16,04:20,0.776,1.178,0.820,1.464,1.062,0.453,0.801,0.757,���k��,2.0,��
2018/11/16,04:30,0.774,1.177,0.819,1.464,1.062,0.454,0.799,0.758,�k��,1.7,��
2018/11/16,04:40,0.774,1.179,0.820,1.464,1.062,0.453,0.801,0.759,�k��,1.7,��
2018/11/16,04:50,0.773,1.177,0.821,1.465,1.062,0.452,0.800,0.756,�k��,1.5,��
2018/11/16,05:00,0.773,1.178,0.821,1.464,1.061,0.453,0.800,0.757,�k��,2.6,��
2018/11/16,05:10,0.775,1.177,0.820,1.461,1.061,0.453,0.798,0.757,�k�k��,1.9,��
2018/11/16,05:20,0.775,1.180,0.820,1.466,1.062,0.454,0.800,0.757,�k��,2.5,��
2018/11/16,05:30,0.775,1.178,0.821,1.462,1.062,0.453,0.800,0.757,�k�k��,2.0,��
2018/11/16,05:40,0.774,1.179,0.819,1.464,1.062,0.451,0.798,0.759,�k�k��,1.9,��
2018/11/16,05:50,0.774,1.179,0.821,1.464,1.062,0.453,0.800,0.757,�k�k��,2.3,��
2018/11/16,06:00,0.774,1.178,0.820,1.464,1.059,0.454,0.799,0.759,�k��,2.5,��
2018/11/16,06:10,0.772,1.178,0.821,1.465,1.061,0.453,0.800,0.759,�k�k��,2.5,��
2018/11/16,06:20,0.774,1.179,0.820,1.462,1.061,0.453,0.799,0.757,�k��,4.3,��
2018/11/16,06:30,0.772,1.178,0.821,1.465,1.063,0.454,0.799,0.758,�k��,3.3,��
2018/11/16,06:40,0.774,1.178,0.819,1.464,1.061,0.453,0.799,0.757,�k��,4.4,��
2018/11/16,06:50,0.774,1.179,0.820,1.464,1.061,0.453,0.799,0.758,�k��,4.3,��
2018/11/16,07:00,0.774,1.176,0.822,1.462,1.059,0.452,0.799,0.758,�k�k��,4.3,��
2018/11/16,07:10,0.775,1.179,0.821,1.462,1.061,0.452,0.801,0.758,�k�k��,4.1,��
2018/11/16,07:20,0.776,1.177,0.820,1.462,1.063,0.453,0.802,0.758,�k�k��,4.1,��
2018/11/16,07:30,0.774,1.177,0.820,1.463,1.060,0.454,0.802,0.758,�k�k��,5.4,��
2018/11/16,07:40,0.774,1.178,0.820,1.464,1.061,0.452,0.802,0.758,�k�k��,5.4,��
2018/11/16,07:50,0.777,1.179,0.820,1.464,1.062,0.453,0.801,0.759,�k�k��,5.3,��
2018/11/16,08:00,0.776,1.179,0.820,1.465,1.061,0.454,0.801,0.758,�k�k��,4.3,��
2018/11/16,08:10,0.776,1.181,0.820,1.464,1.061,0.453,0.801,0.759,�k�k��,5.6,��
2018/11/16,08:20,0.777,1.181,0.820,1.465,1.064,0.454,0.802,0.757,�k,6.5,��
2018/11/16,08:30,0.777,1.183,0.824,1.464,1.063,0.453,0.803,0.757,�k,5.8,��
2018/11/16,08:40,0.779,1.178,0.821,1.463,1.064,0.454,0.801,0.758,�k�k��,5.0,��
2018/11/16,08:50,0.777,1.177,0.820,1.468,1.065,0.455,0.802,0.757,�k�k��,4.6,��
2018/11/16,09:00,0.779,1.177,0.822,1.467,1.063,0.454,0.801,0.759,�k,4.4,��
2018/11/16,09:10,0.778,1.182,0.823,1.465,1.064,0.454,0.799,0.759,�k,3.5,��
2018/11/16,09:20,0.777,1.177,0.823,1.466,1.065,0.454,0.802,0.758,�k,4.2,��
2018/11/16,09:30,0.779,1.178,0.822,1.467,1.065,0.453,0.800,0.760,�k,4.4,��
2018/11/16,09:40,0.780,1.177,0.820,1.465,1.067,0.454,0.800,0.760,�k�k��,4.2,��
2018/11/16,09:50,0.778,1.174,0.823,1.469,1.064,0.455,0.800,0.760,�k,3.3,��
2018/11/16,10:00,0.779,1.177,0.824,1.466,1.064,0.455,0.801,0.760,�k�k��,4.5,��
2018/11/16,10:10,0.780,1.178,0.822,1.466,1.064,0.454,0.800,0.759,�k�k��,4.2,��
2018/11/16,10:20,0.778,1.177,0.823,1.466,1.064,0.454,0.801,0.757,�k�k��,4.4,��
2018/11/16,10:30,0.781,1.177,0.821,1.467,1.064,0.454,0.801,0.758,�k�k��,4.4,��
2018/11/16,10:40,0.778,1.176,0.823,1.467,1.065,0.454,0.800,0.760,�k�k��,4.0,��
2018/11/16,10:50,0.780,1.176,0.821,1.466,1.065,0.454,0.800,0.760,�k�k��,3.6,��
2018/11/16,11:00,0.777,1.176,0.822,1.467,1.062,0.453,0.802,0.762,�k�k��,4.0,��
2018/11/16,11:10,0.779,1.177,0.821,1.465,1.062,-,0.800,0.759,�k�k��,3.0,��
2018/11/16,11:20,0.778,1.176,0.821,1.467,1.066,-,0.801,0.760,�k��,2.5,��
2018/11/16,11:30,0.779,1.178,0.822,1.466,1.063,-,0.803,0.761,���k��,2.3,��
2018/11/16,11:40,0.778,1.177,0.823,1.468,1.065,-,0.803,0.760,�k�k��,2.3,��
2018/11/16,11:50,0.778,1.178,0.824,1.465,1.061,-,0.801,0.760,���k��,2.2,��
2018/11/16,12:00,0.779,1.180,0.823,1.467,1.065,-,0.801,0.761,��,2.3,��
2018/11/16,12:10,0.780,1.183,0.822,1.468,1.063,-,0.802,0.758,���k��,2.0,��
2018/11/16,12:20,0.781,1.182,0.820,1.466,1.063,-,0.803,0.758,���k��,1.7,��
2018/11/16,12:30,0.779,1.180,0.822,1.465,1.066,-,0.801,0.760,���쓌,1.5,��
2018/11/16,12:40,0.780,1.178,0.822,1.467,1.064,-,0.802,0.758,���쓌,2.5,��
2018/11/16,12:50,0.779,1.181,0.822,1.464,1.066,-,0.799,0.758,���쓌,2.3,��
2018/11/16,13:00,0.779,1.181,0.820,1.467,1.066,-,0.802,0.757,���쓌,2.3,��
2018/11/16,13:10,0.779,1.178,0.820,1.467,1.064,-,0.801,0.756,���쓌,1.5,��
2018/11/16,13:20,0.779,1.180,0.822,1.468,1.065,-,0.803,0.757,�쓌,2.3,��
2018/11/16,13:30,0.781,1.180,0.824,1.466,1.064,-,0.801,0.756,��쓌,2.0,��
2018/11/16,13:40,0.778,1.180,0.821,1.467,1.064,-,0.802,0.757,�쓌,2.0,��
2018/11/16,13:50,0.780,1.180,0.822,1.466,1.065,-,0.803,0.757,��쓌,2.3,��
2018/11/16,14:00,0.780,1.178,0.823,1.466,1.066,-,0.802,0.757,��쓌,2.3,��
2018/11/16,14:10,0.780,1.177,0.823,1.468,1.065,-,0.804,0.757,��쓌,2.3,��
2018/11/16,14:20,0.781,1.174,0.822,1.467,1.066,-,0.802,0.756,��쓌,2.0,��
2018/11/16,14:30,0.781,1.180,0.826,1.466,1.066,-,0.802,0.756,��,2.5,��
2018/11/16,14:40,0.780,1.177,0.823,1.469,1.067,-,0.804,0.757,��쓌,3.2,��
2018/11/16,14:50,0.779,1.182,0.823,1.466,1.065,-,0.803,0.758,�쓌,3.0,��
2018/11/16,15:00,0.781,1.178,0.825,1.467,1.064,-,0.803,0.757,��쓌,3.3,��
2018/11/16,15:10,0.781,1.186,0.825,1.465,1.066,0.457,0.803,0.755,��,3.4,��
2018/11/16,15:20,0.780,1.186,0.826,1.469,1.065,0.457,0.803,0.759,��쓌,4.5,��
2018/11/16,15:30,0.779,1.184,0.826,1.466,1.064,0.456,0.804,0.761,��쓌,5.6,��
2018/11/16,15:40,0.779,1.187,0.824,1.469,1.066,0.457,0.805,0.761,��,4.9,��
2018/11/16,15:50,0.779,1.185,0.826,1.467,1.067,0.457,0.803,0.762,��,4.7,��
2018/11/16,16:00,0.781,1.188,0.828,1.467,1.068,0.456,0.804,0.761,��,5.5,��
2018/11/16,16:10,0.780,1.189,0.826,1.468,1.067,0.456,0.804,0.760,��,6.4,��
2018/11/16,16:20,0.782,1.187,0.826,1.468,1.066,0.456,0.803,0.761,��,6.2,��
2018/11/16,16:30,0.784,1.185,0.824,1.469,1.068,0.457,0.802,0.758,��,5.8,��
2018/11/16,16:40,0.782,1.188,0.825,1.468,1.070,0.456,0.804,0.760,��,5.3,��
2018/11/16,16:50,0.782,1.186,0.824,1.466,1.069,0.457,0.803,0.760,��,5.6,��
2018/11/16,17:00,0.782,1.187,0.824,1.469,1.067,0.457,0.804,0.759,��,6.5,��
2018/11/16,17:10,0.782,1.187,0.825,1.466,1.068,0.456,0.803,0.759,��,6.4,��
2018/11/16,17:20,0.781,1.190,0.825,1.467,1.068,0.457,0.805,0.759,��쐼,7.1,��
2018/11/16,17:30,0.783,1.187,0.824,1.467,1.069,0.456,0.803,0.759,��쐼,6.8,��
2018/11/16,17:40,0.783,1.187,0.825,1.467,1.068,0.456,0.803,0.760,��쐼,6.2,��
2018/11/16,17:50,0.784,1.186,0.827,1.466,1.067,0.457,0.805,0.759,��쐼,6.5,��
2018/11/16,18:00,0.782,1.186,0.826,1.469,1.068,0.455,0.804,0.759,��쐼,5.9,��
2018/11/16,18:10,0.782,1.182,0.825,1.468,1.068,0.457,0.805,0.760,��쐼,6.5,��
2018/11/16,18:20,0.782,1.187,0.827,1.467,1.069,0.457,0.803,0.761,��쐼,6.8,��
2018/11/16,18:30,0.782,1.189,0.826,1.465,1.067,0.456,0.805,0.760,��쐼,6.7,��
2018/11/16,18:40,0.782,1.187,0.827,1.468,1.067,0.456,0.806,0.760,��쐼,5.6,��
2018/11/16,18:50,0.781,1.186,0.826,1.469,1.067,0.456,0.804,0.761,��쐼,4.3,��
2018/11/16,19:00,0.782,1.184,0.827,1.467,1.068,0.458,0.804,0.759,��쐼,4.6,��
2018/11/16,19:10,0.783,1.188,0.826,1.466,1.066,0.456,0.805,0.760,��쐼,4.9,��
2018/11/16,19:20,0.783,1.187,0.825,1.467,1.066,0.455,0.802,0.760,��쐼,5.2,��
2018/11/16,19:30,0.782,1.187,0.826,1.466,1.067,0.456,0.802,0.760,��쐼,4.7,��
2018/11/16,19:40,0.780,1.185,0.824,1.469,1.069,0.456,0.802,0.760,��쐼,4.5,��
2018/11/16,19:50,0.781,1.188,0.824,1.468,1.067,0.456,0.803,0.759,��쐼,4.8,��
2018/11/16,20:00,0.784,1.187,0.825,1.468,1.068,0.457,0.804,0.759,��쐼,5.2,��
2018/11/16,20:10,0.783,1.187,0.826,1.467,1.067,0.458,0.805,0.759,��쐼,4.4,��
2018/11/16,20:20,0.782,1.188,0.826,1.471,1.066,0.456,0.805,0.760,�쐼,3.8,��
2018/11/16,20:30,0.780,1.188,0.826,1.466,1.067,0.455,0.804,0.758,�쐼,3.7,��
2018/11/16,20:40,0.783,1.187,0.827,1.467,1.067,0.456,0.805,0.759,�쐼,4.1,��
2018/11/16,20:50,0.781,1.188,0.826,1.468,1.068,0.456,0.804,0.761,�쐼,4.4,��
2018/11/16,21:00,0.781,1.185,0.825,1.467,1.068,0.457,0.804,0.759,�쐼,4.1,��
2018/11/16,21:10,0.781,1.185,0.826,1.467,1.067,0.456,0.804,0.761,���쐼,4.6,��
2018/11/16,21:20,0.780,1.185,0.825,1.467,1.066,0.455,0.805,0.760,�쐼,4.2,��
2018/11/16,21:30,0.781,1.183,0.825,1.463,1.067,0.457,0.803,0.760,�쐼,4.9,��
2018/11/16,21:40,0.781,1.184,0.827,1.464,1.067,0.457,0.802,0.760,�쐼,5.1,��
2018/11/16,21:50,0.780,1.184,0.825,1.469,1.067,0.457,0.803,0.760,�쐼,5.2,��
2018/11/16,22:00,0.783,1.183,0.827,1.468,1.067,0.456,0.803,0.758,�쐼,3.7,��
2018/11/16,22:10,0.781,1.181,0.827,1.466,1.067,0.457,0.804,0.760,�쐼,2.9,��
2018/11/16,22:20,0.781,1.184,0.825,1.468,1.064,0.456,0.804,0.759,���쐼,3.8,��
2018/11/16,22:30,0.781,1.187,0.825,1.469,1.069,0.458,0.803,0.761,���쐼,3.6,��
2018/11/16,22:40,0.779,1.183,0.824,1.470,1.066,0.456,0.804,0.761,���쐼,3.1,��
2018/11/16,22:50,0.781,1.188,0.825,1.468,1.067,0.456,0.800,0.759,���쐼,2.8,��
2018/11/16,23:00,0.781,1.184,0.823,1.469,1.066,0.457,0.802,0.759,�쐼,3.2,��
2018/11/16,23:10,0.781,1.185,0.826,1.467,1.066,0.456,0.805,0.759,���쐼,3.8,��
2018/11/16,23:20,0.780,1.186,0.824,1.467,1.067,0.457,0.805,0.759,���쐼,4.4,��
2018/11/16,23:30,0.780,1.185,0.825,1.469,1.067,0.455,0.805,0.758,�쐼,4.7,��
2018/11/16,23:40,0.781,1.182,0.825,1.469,1.067,0.458,0.804,0.760,�쐼,4.5,��
2018/11/16,23:50,0.782,1.182,0.826,1.467,1.067,0.458,0.803,0.761,�쐼,3.9,��
